Louisville, KY

12:03 AM EDT on September 26, 2017 (GMT -0400)
Louisville International-Standiford

Weather History for KSDF - January, 2012

Change the Weather History Date:

Thursday, January 12, 2012

  Actual Average Record
Temperature  
Mean Temperature 33 °F 35 °F  
Max Temperature 46 °F 43 °F 72 °F (1890)
Min Temperature 19 °F 27 °F -15 °F (1918)
Degree Days  
Heating Degree Days 32 30  
Month to date heating degree days 291 360  
Since 1 July heating degree days 1626 1936  
Cooling Degree Days 0 0  
Month to date cooling degree days 0 0  
Year to date cooling degree days 0 0  
Moisture  
Dew Point 30 °F    
Average Humidity 80    
Maximum Humidity 92    
Minimum Humidity 68    
Precipitation  
Precipitation 0.09 in 0.10 in 1.18 in (1888)
Month to date precipitation 1.10 1.27  
Year to date precipitation 1.10 1.27  
Snow  
Snow 0.10 in 0.10 in 7.00 in (1964)
Month to date snowfall 0.1 1.3  
Since 1 July snowfall 0.1 4.1  
Snow Depth 0.00 in    
Sea Level Pressure  
Sea Level Pressure 29.61 in    
Wind  
Wind Speed 15 mph (West)    
Max Wind Speed 28 mph    
Max Gust Speed 35 mph    
Visibility 5 miles    
Events Fog , Rain , Snow    
T = Trace of Precipitation, MM = Missing Value Source: NWS Daily Summary

Daily Weather History Graph

Daily Weather History Graph

Search for Another Location

Airport or City:

Trip Planner

Search our weather history database for the weather conditions in past years. The results will help you decide how hot, cold, wet, or windy it might be!

Date:

Astronomy

Jan. 12, 2012 Rise Set
Actual Time 7:59 AM EST 5:43 PM EST
Civil Twilight 7:30 AM EST 6:12 PM EST
Nautical Twilight 6:57 AM EST 6:45 PM EST
Astronomical Twilight 6:25 AM EST 7:16 PM EST
Moon 9:43 PM EST (1/12) 9:46 AM EST (1/12)
Length of Visible Light 10h 42m
Length of Day
9h 44m
Waning Gibbous, 87% of the Moon is Illuminated
Jan 12
Waning Gibbous
Jan 16
Last Quarter
Jan 23
New
Jan 30
First Quarter
Feb 7
Full

Hourly Weather History & Observations

Time (EST) Temp. Windchill Dew Point Humidity Pressure Visibility Wind Dir Wind Speed Gust Speed Precip Events Conditions
12:56 AM 45.0 °F 38.2 °F 43.0 °F 93% 29.52 in 7.0 mi WSW 15.0 mph - N/A   Overcast
1:56 AM 45.0 °F 39.3 °F 42.1 °F 90% 29.54 in 6.0 mi West 11.5 mph - N/A   Overcast
2:56 AM 45.0 °F 40.1 °F 42.1 °F 90% 29.55 in 8.0 mi WSW 9.2 mph - N/A   Overcast
3:56 AM 45.0 °F 40.1 °F 43.0 °F 93% 29.55 in 6.0 mi WSW 9.2 mph - N/A   Overcast
4:56 AM 45.0 °F 39.7 °F 43.0 °F 93% 29.55 in 5.0 mi WSW 10.4 mph - 0.00 in   Light Drizzle
5:56 AM 46.0 °F 41.4 °F 43.0 °F 89% 29.54 in 5.0 mi WSW 9.2 mph - 0.00 in   Overcast
6:33 AM 46.4 °F 42.4 °F 42.8 °F 87% 29.55 in 6.0 mi SW 8.1 mph - N/A   Overcast
6:56 AM 46.0 °F 41.4 °F 43.0 °F 89% 29.55 in 6.0 mi SW 9.2 mph - N/A   Overcast
7:35 AM 46.4 °F 41.9 °F 42.8 °F 87% 29.55 in 5.0 mi SW 9.2 mph - 0.00 in   Light Drizzle
7:56 AM 46.0 °F 41.0 °F 42.1 °F 86% 29.55 in 5.0 mi WSW 10.4 mph - 0.00 in   Light Drizzle
8:09 AM 46.4 °F 42.4 °F 42.8 °F 87% 29.54 in 6.0 mi SW 8.1 mph - 0.00 in   Overcast
8:56 AM 45.0 °F 39.7 °F 41.0 °F 86% 29.55 in 5.0 mi WSW 10.4 mph - 0.00 in   Overcast
9:03 AM 46.4 °F - 41.0 °F 81% 29.54 in 5.0 mi North - - N/A   Haze
9:11 AM 46.4 °F - 41.0 °F 81% 29.54 in 5.0 mi North - - N/A   Haze
9:43 AM 46.4 °F 41.5 °F 41.0 °F 81% 29.54 in 5.0 mi SW 10.4 mph - N/A   Haze
9:56 AM 45.0 °F 40.1 °F 41.0 °F 86% 29.54 in 5.0 mi WSW 9.2 mph - N/A   Overcast
10:10 AM 44.6 °F 38.4 °F 41.0 °F 87% 29.54 in 3.0 mi WSW 12.7 mph - 0.00 in Rain Light Rain
10:17 AM 44.6 °F 40.2 °F 41.0 °F 87% 29.53 in 2.5 mi WSW 8.1 mph - 0.00 in Rain Rain
10:19 AM 44.6 °F 39.7 °F 41.0 °F 87% 29.53 in 3.0 mi WSW 9.2 mph - 0.01 in Rain Rain
10:56 AM 44.1 °F 40.8 °F 41.0 °F 89% 29.52 in 3.0 mi WSW 5.8 mph - 0.01 in   Overcast
11:14 AM 44.6 °F 38.1 °F 41.0 °F 87% 29.51 in 2.0 mi West 13.8 mph 19.6 mph 0.00 in Rain Light Rain
11:24 AM 42.8 °F 34.5 °F 39.2 °F 87% 29.51 in 1.8 mi WNW 18.4 mph 24.2 mph 0.01 in Rain Light Rain
11:37 AM 39.2 °F 30.2 °F 37.4 °F 93% 29.51 in 2.0 mi West 17.3 mph - 0.02 in Rain Light Rain
11:56 AM 39.0 °F 30.3 °F 36.0 °F 89% 29.52 in 2.0 mi West 16.1 mph - 0.03 in Rain Light Rain
12:03 PM 39.2 °F 30.2 °F 35.6 °F 87% 29.51 in 4.0 mi West 17.3 mph 23.0 mph 0.00 in Rain Light Rain
12:43 PM 35.6 °F 24.5 °F 32.0 °F 87% 29.52 in 1.5 mi West 20.7 mph 26.5 mph 0.02 in Snow Light Snow
12:56 PM 34.0 °F 22.1 °F 30.9 °F 89% 29.54 in 1.0 mi West 21.9 mph 27.6 mph 0.03 in Snow Light Snow
12:58 PM 33.8 °F 22.2 °F 30.2 °F 87% 29.53 in 1.2 mi West 20.7 mph 27.6 mph 0.00 in Snow Light Snow
1:19 PM 32.0 °F 22.1 °F 30.2 °F 93% 29.54 in 0.5 mi West 13.8 mph - 0.01 in Fog , Snow Snow
1:56 PM 32.0 °F 20.5 °F 28.9 °F 88% 29.55 in 2.5 mi West 18.4 mph 25.3 mph 0.02 in Snow Light Snow
1:58 PM 32.0 °F 19.8 °F 28.4 °F 87% 29.54 in 3.0 mi West 20.7 mph 25.3 mph 0.00 in Snow Light Snow
2:34 PM 30.2 °F 18.5 °F 26.6 °F 86% 29.57 in 10.0 mi West 17.3 mph 25.3 mph 0.00 in   Overcast
2:53 PM 30.2 °F 16.8 °F 26.6 °F 86% 29.57 in 10.0 mi West 23.0 mph 28.8 mph 0.00 in   Overcast
2:56 PM 30.0 °F 16.6 °F 26.1 °F 85% 29.58 in 10.0 mi West 23.0 mph 28.8 mph 0.00 in   Overcast
3:50 PM 28.4 °F 15.1 °F 21.2 °F 74% 29.60 in 1.8 mi West 20.7 mph 24.2 mph 0.00 in Snow Light Snow
3:56 PM 27.0 °F 13.5 °F 21.0 °F 78% 29.61 in 1.5 mi West 19.6 mph - 0.00 in Snow Light Snow
4:10 PM 26.6 °F 13.4 °F 21.2 °F 80% 29.62 in 4.0 mi West 18.4 mph - 0.00 in Snow Light Snow
4:56 PM 26.1 °F 12.3 °F 18.0 °F 71% 29.65 in 9.0 mi West 19.6 mph 27.6 mph 0.00 in   Overcast
5:56 PM 24.1 °F 8.7 °F 17.1 °F 75% 29.70 in 4.0 mi West 23.0 mph 28.8 mph 0.00 in Snow Light Snow
6:33 PM 23.0 °F 11.1 °F 15.8 °F 74% 29.71 in 9.0 mi West 12.7 mph 24.2 mph 0.00 in   Overcast
6:56 PM 23.0 °F 9.6 °F 15.1 °F 72% 29.73 in 10.0 mi WSW 16.1 mph 23.0 mph 0.00 in   Overcast
7:56 PM 23.0 °F 8.7 °F 15.1 °F 72% 29.75 in 10.0 mi West 18.4 mph 29.9 mph 0.00 in   Overcast
8:56 PM 23.0 °F 7.2 °F 14.0 °F 68% 29.78 in 10.0 mi West 23.0 mph 29.9 mph N/A   Overcast
9:30 PM 21.2 °F 7.8 °F 15.8 °F 80% 29.78 in 3.0 mi West 15.0 mph 25.3 mph 0.00 in Snow Light Snow
9:36 PM 21.2 °F 7.3 °F 15.8 °F 80% 29.78 in 2.0 mi West 16.1 mph - 0.00 in Snow Light Snow
9:47 PM 21.2 °F 4.9 °F 14.0 °F 74% 29.79 in 4.0 mi West 23.0 mph 28.8 mph 0.00 in Snow Light Snow
9:56 PM 21.0 °F 6.6 °F 12.9 °F 71% 29.81 in 9.0 mi West 17.3 mph 24.2 mph 0.00 in   Overcast
10:19 PM 19.4 °F 2.8 °F 12.2 °F 74% 29.80 in 6.0 mi West 21.9 mph 28.8 mph 0.00 in Snow Light Snow
10:56 PM 19.0 °F 5.6 °F 12.9 °F 77% 29.83 in 3.0 mi West 13.8 mph - 0.00 in Snow Light Snow
11:48 PM 19.4 °F 4.5 °F 12.2 °F 74% 29.82 in 2.5 mi West 17.3 mph - 0.00 in Snow Light Snow
11:54 PM 19.4 °F 5.0 °F 12.2 °F 74% 29.82 in 1.5 mi West 16.1 mph - 0.00 in Snow Light Snow
11:56 PM 19.0 °F 4.5 °F 12.9 °F 77% 29.84 in 1.5 mi West 16.1 mph - 0.00 in Snow Light Snow